TianYi 6 (43158 NORAD) Tracking and Keplerian Element Data

This shows tracking and keplerian element data for the satellite.

Feedback or suggestion? Click here.




ElementValue
Catalog43158
NameTianYi 6
Epoch Orbit4956
Epoch Day347.84715132
Epoch Year2018
RAAN58.7492
Inclination97.5062
Eccentricity0.0012805
Argument of Perigee239.4358
Mean Anonmoly229.4525
Mean Motion15.09982995
Decay Rate2.48E-06
L11 43158U 18008D 18347.84715132 .00000248 00000-0 19169-4 0 9996
L22 43158 97.5062 58.7492 0012805 239.4358 229.4525 15.09982995 49567

Live tracking and technical data element details for TianYi 6 (NORAD 43158). TianYi 6 can be tracked NOW for your location showing map with azimuth and elevation plus other details from your city location.

Track the satellite on the map from your city or location and see movement details for azimuth, elevation, latitude, longitude, range, height, and movement on the map or in text.







IsCatalogInMostPopularTable: catalog: 43158, numindb: 136
Update: records affected: 1



GetName: 43158 TianYi 6

Hit Count: updated at: Sun, 16 Dec 2018 10:39:51 GMT